Weather History for Bartow, FL

Change the Weather History Date:

Friday, January 24, 2014

  Actual Average Record
Temperature  
Mean Temperature 50 °F -  
Max Temperature 57 °F 73 °F 85 °F (1990)
Min Temperature 42 °F 49 °F 29 °F (1960)
Degree Days  
Heating Degree Days 16    
Moisture  
Dew Point 31 °F    
Average Humidity 54    
Maximum Humidity 71    
Minimum Humidity 25    
Precipitation  
Precipitation 0.00 in - - ()
Sea Level Pressure  
Sea Level Pressure 30.36 in    
Wind  
Wind Speed 16 mph (NNE)    
Max Wind Speed 24 mph    
Max Gust Speed -    
Visibility 10 miles    
Events      
Averages and records for this station are not official NWS values.
T = Trace of Precipitation, MM = Missing Value Source: NWS Daily Summary

Daily Weather History Graph

Daily Weather History Graph

Search for Another Location

Airport:

Trip Planner

Search our weather history database for the weather conditions in past years. The results will help you decide how hot, cold, wet, or windy it might be!

Date:

Astronomy

Jan. 24, 2014 Rise Set
Actual Time 7:17 AM EST 6:01 PM EST
Civil Twilight 6:52 AM EST 6:26 PM EST
Nautical Twilight 6:24 AM EST 6:54 PM EST
Astronomical Twilight 5:56 AM EST 7:22 PM EST
Moon 12:50 AM EST (1/24) 12:13 PM EST (1/24)
Length of Visible Light 11h 33m
Length of Day
10h 43m
Last Quarter, 45% of the Moon is Illuminated
Jan 24
Last Quarter
Jan 30
New
Feb 6
First Quarter
Feb 14
Full
Feb 22
Last Quarter

Hourly Weather History & Observations

Time (EST) Temp. Windchill Dew Point Humidity Pressure Visibility Wind Dir Wind Speed Gust Speed Precip Events Conditions
12:15 AM 46.4 °F - 35.6 °F 66% 30.38 in 10.0 mi North - - N/A   Clear
12:35 AM 46.4 °F - 37.4 °F 71% 30.37 in 10.0 mi North - - N/A   Clear
12:55 AM 44.6 °F - 35.6 °F 71% 30.37 in 10.0 mi North - - N/A   Clear
1:15 AM 44.6 °F - 35.6 °F 71% 30.37 in 10.0 mi North - - N/A   Clear
1:35 AM 44.6 °F - 35.6 °F 71% 30.37 in 10.0 mi North - - N/A   Clear
1:55 AM 46.4 °F - 35.6 °F 66% 30.38 in 10.0 mi North - - N/A   Clear
2:15 AM 46.4 °F - 33.8 °F 62% 30.37 in 10.0 mi North - - N/A   Clear
2:35 AM 44.6 °F - 32.0 °F 61% 30.37 in 10.0 mi North - - N/A   Clear
2:55 AM 44.6 °F - 32.0 °F 61% 30.37 in 10.0 mi North - - N/A   Clear
3:15 AM 44.6 °F - 32.0 °F 61% 30.36 in 10.0 mi North - - N/A   Clear
3:35 AM 46.4 °F - 32.0 °F 57% 30.36 in 10.0 mi North - - N/A   Clear
3:55 AM 44.6 °F - 32.0 °F 61% 30.37 in 10.0 mi North - - N/A   Clear
4:15 AM 44.6 °F - 30.2 °F 57% 30.38 in 10.0 mi North - - N/A   Clear
4:35 AM 44.6 °F - 32.0 °F 61% 30.39 in 10.0 mi North - - N/A   Clear
4:55 AM 42.8 °F - 32.0 °F 66% 30.38 in 10.0 mi North - - N/A   Clear
5:15 AM 42.8 °F - 32.0 °F 66% 30.40 in 10.0 mi North - - N/A   Clear
5:35 AM 42.8 °F - 32.0 °F 66% 30.41 in 10.0 mi North - - N/A   Clear
5:55 AM 42.8 °F - 32.0 °F 66% 30.42 in 10.0 mi North - - N/A   Clear
6:15 AM 42.8 °F - 30.2 °F 61% 30.43 in 10.0 mi North - - N/A   Clear
7:47 AM 42.8 °F 35.4 °F 26.6 °F 53% 30.46 in 10.0 mi North 15.0 mph - N/A   Scattered Clouds
8:50 AM 44.6 °F 35.7 °F 23.0 °F 43% 30.49 in 10.0 mi North 24.2 mph - N/A   Mostly Cloudy
9:47 AM 46.4 °F 39.5 °F 23.0 °F 40% 30.49 in 10.0 mi North 17.3 mph - N/A   Mostly Cloudy
10:50 AM 50.0 °F - 21.2 °F 32% 30.47 in 10.0 mi NNE 12.7 mph - N/A   Mostly Cloudy
11:50 AM 51.8 °F - 21.2 °F 30% 30.44 in 10.0 mi NNE 11.5 mph - N/A   Mostly Cloudy
12:50 PM 51.8 °F - 23.0 °F 33% 30.40 in 10.0 mi NNE 13.8 mph - N/A   Scattered Clouds
1:47 PM 55.4 °F - 21.2 °F 26% 30.36 in 10.0 mi ENE 12.7 mph - N/A   Scattered Clouds
2:35 PM 55.4 °F - 23.0 °F 29% 30.34 in 10.0 mi North - - N/A   Clear
2:47 PM 57.2 °F - 23.0 °F 27% 30.33 in 10.0 mi NE 9.2 mph - N/A   Partly Cloudy
2:55 PM 57.2 °F - 21.2 °F 25% 30.33 in 10.0 mi North - - N/A   Clear
3:15 PM 57.2 °F - 23.0 °F 27% 30.32 in 10.0 mi North - - N/A   Clear
3:35 PM 57.2 °F - 23.0 °F 27% 30.33 in 10.0 mi North - - N/A   Clear
3:55 PM 57.2 °F - 26.6 °F 31% 30.32 in 5.0 mi North - - N/A   Haze
4:15 PM 57.2 °F - 26.6 °F 31% 30.32 in 10.0 mi North - - N/A   Clear
4:35 PM 55.4 °F - 28.4 °F 36% 30.32 in 8.0 mi North - - N/A   Clear
4:55 PM 57.2 °F - 30.2 °F 36% 30.32 in 10.0 mi North - - N/A   Clear
5:15 PM 55.4 °F - 32.0 °F 41% 30.32 in 10.0 mi North - - N/A   Clear
5:35 PM 55.4 °F - 32.0 °F 41% 30.33 in 10.0 mi North - - N/A   Clear
5:55 PM 53.6 °F - 33.8 °F 47% 30.33 in 10.0 mi North - - N/A   Clear
6:15 PM 53.6 °F - 33.8 °F 47% 30.32 in 10.0 mi North - - N/A   Clear
6:35 PM 51.8 °F - 32.0 °F 47% 30.33 in 10.0 mi North - - N/A   Clear
6:55 PM 51.8 °F - 33.8 °F 50% 30.34 in 10.0 mi North - - N/A   Clear
7:15 PM 48.2 °F - 33.8 °F 58% 30.34 in 10.0 mi North - - N/A   Clear
7:35 PM 48.2 °F - 35.6 °F 62% 30.35 in 10.0 mi North - - N/A   Clear
7:55 PM 48.2 °F - 35.6 °F 62% 30.35 in 10.0 mi North - - N/A   Clear
8:15 PM 46.4 °F - 35.6 °F 66% 30.34 in 10.0 mi North - - N/A   Clear
8:35 PM 46.4 °F - 35.6 °F 66% 30.34 in 10.0 mi North - - N/A   Clear
8:55 PM 46.4 °F - 35.6 °F 66% 30.35 in 10.0 mi North - - N/A   Clear
9:15 PM 46.4 °F - 35.6 °F 66% 30.35 in 10.0 mi North - - N/A   Clear
9:35 PM 44.6 °F - 35.6 °F 71% 30.34 in 10.0 mi North - - N/A   Clear
9:55 PM 46.4 °F - 35.6 °F 66% 30.34 in 10.0 mi North - - N/A   Clear
10:15 PM 44.6 °F - 35.6 °F 71% 30.34 in 10.0 mi North - - N/A   Clear
10:35 PM 44.6 °F - 33.8 °F 66% 30.33 in 10.0 mi North - - N/A   Clear
10:55 PM 44.6 °F - 33.8 °F 66% 30.32 in 10.0 mi North - - N/A   Clear
11:15 PM 42.8 °F - 33.8 °F 70% 30.32 in 10.0 mi North - - N/A   Clear
11:35 PM 44.6 °F - 33.8 °F 66% 30.32 in 10.0 mi North - - N/A   Clear
11:55 PM 44.6 °F - 33.8 °F 66% 30.31 in 10.0 mi North - - N/A   Clear